A6CTB OMDB-OMDB

Flight info

Callsign A6CTB
Flight time N/A
Altitude 1500
Route OMDB
Aircraft SF50/L-V/N

Departure

Time 2026-05-03 20:16
Airport Dubai International Airport (OMDB)

Arrival

Time N/A
Airport Dubai International Airport (OMDB)
Time Latitude Longitude Altitude Speed Heading
2026-05-03 20:15 25.23970 55.38570 67 ft 0 kts 28°
2026-05-03 20:15 25.24004 55.38587 67 ft 15 kts 16°
2026-05-03 20:15 25.24108 55.38554 67 ft 26 kts 301°
2026-05-03 20:15 25.24300 55.38215 67 ft 86 kts 306°
2026-05-03 20:16 25.24640 55.37620 196 ft 112 kts 303°
2026-05-03 20:16 25.25093 55.36791 409 ft 147 kts 303°
2026-05-03 20:16 25.25635 55.35807 836 ft 153 kts 301°
2026-05-03 20:16 25.26088 55.34808 1159 ft 126 kts 276°
2026-05-03 20:17 25.25593 55.34106 1015 ft 148 kts 194°
2026-05-03 20:17 25.24623 55.34398 904 ft 151 kts 150°
2026-05-03 20:17 25.23673 55.35015 715 ft 158 kts 148°
2026-05-03 20:17 25.22895 55.35824 653 ft 155 kts 125°
2026-05-03 20:18 25.22341 55.36768 775 ft 134 kts 114°
2026-05-03 20:18 25.21879 55.37615 775 ft 127 kts 142°
2026-05-03 20:18 25.21018 55.37852 638 ft 127 kts 185°
2026-05-03 20:18 25.20160 55.37794 599 ft 120 kts 188°
2026-05-03 20:19 25.19312 55.37650 466 ft 122 kts 194°
2026-05-03 20:19 25.18472 55.37433 382 ft 116 kts 202°
2026-05-03 20:19 25.17756 55.37183 380 ft 100 kts 204°
2026-05-03 20:19 25.17101 55.36886 286 ft 107 kts 199°
2026-05-03 20:20 25.16269 55.36756 289 ft 129 kts 185°
2026-05-03 20:20 25.15367 55.36763 506 ft 136 kts 181°
2026-05-03 20:20 25.14438 55.36808 925 ft 122 kts 178°
2026-05-03 20:20 25.13452 55.36950 920 ft 151 kts 174°
2026-05-03 20:21 25.12320 55.37107 916 ft 173 kts 173°
2026-05-03 20:21 25.11050 55.37282 1006 ft 177 kts 177°
2026-05-03 20:21 25.09796 55.37471 1164 ft 185 kts 157°
2026-05-03 20:21 25.08865 55.38445 1253 ft 200 kts 106°
2026-05-03 20:22 25.09093 55.40044 1000 ft 220 kts 53°
2026-05-03 20:22 25.10153 55.41280 1022 ft 214 kts 39°
2026-05-03 20:22 25.11372 55.42328 762 ft 224 kts 33°
2026-05-03 20:22 25.12549 55.43439 941 ft 216 kts 52°
2026-05-03 20:23 25.12830 55.45086 900 ft 227 kts 92°
2026-05-03 20:23 25.12199 55.46832 606 ft 241 kts 116°
2026-05-03 20:23 25.11372 55.48416 677 ft 235 kts 119°
2026-05-03 20:23 25.10090 55.49437 805 ft 227 kts 170°
2026-05-03 20:24 25.08628 55.48936 681 ft 226 kts 220°
2026-05-03 20:24 25.07366 55.47868 768 ft 221 kts 220°
2026-05-03 20:24 25.06308 55.46616 749 ft 219 kts 242°
2026-05-03 20:24 25.05850 55.45036 687 ft 218 kts 267°
2026-05-03 20:25 25.06073 55.43394 728 ft 211 kts 290°
2026-05-03 20:25 25.06560 55.41836 724 ft 211 kts 290°
2026-05-03 20:25 25.07095 55.40343 752 ft 209 kts 297°
2026-05-03 20:25 25.07792 55.38917 732 ft 208 kts 308°
2026-05-03 20:26 25.09139 55.38311 595 ft 216 kts 352°
2026-05-03 20:26 25.10673 55.38240 531 ft 218 kts
2026-05-03 20:26 25.12246 55.38338 507 ft 217 kts
2026-05-03 20:26 25.13750 55.38617 455 ft 216 kts 13°
2026-05-03 20:27 25.15157 55.39168 533 ft 208 kts 17°
2026-05-03 20:27 25.16490 55.39712 616 ft 199 kts 30°
2026-05-03 20:27 25.17071 55.40960 900 ft 180 kts 87°
2026-05-03 20:27 25.16304 55.42005 880 ft 178 kts 167°
2026-05-03 20:28 25.15238 55.41575 761 ft 164 kts 252°
2026-05-03 20:28 25.15447 55.40584 984 ft 134 kts 323°
2026-05-03 20:28 25.16409 55.40637 587 ft 165 kts 31°
2026-05-03 20:28 25.16754 55.41838 541 ft 171 kts 109°
2026-05-03 20:29 25.15775 55.42446 441 ft 172 kts 188°
2026-05-03 20:29 25.15021 55.41620 363 ft 155 kts 274°
2026-05-03 20:29 25.15377 55.40501 306 ft 151 kts 301°
2026-05-03 20:29 25.15962 55.39518 277 ft 150 kts 307°
2026-05-03 20:30 25.16309 55.38947 190 ft 155 kts 304°